Time,TemperatureF,DewpointF,PressureIn,WindDirection,WindDirectionDegrees,WindSpeedMPH,WindSpeedGustMPH,Humidity,HourlyPrecipIn,Conditions,Clouds,dailyrainin,SoftwareType,DateUTC
2013-10-16 00:04:00,50.6,40.0,30.00,North,11,5.0,7.0,67,0.00,,,0.00,weatherlink.com 1.10,2013-10-16 07:04:00,
2013-10-16 00:19:00,50.7,40.0,30.00,NNE,32,0.0,7.0,66,0.00,,,0.00,weatherlink.com 1.10,2013-10-16 07:19:00,
2013-10-16 00:34:00,51.3,39.0,30.01,NNE,24,1.0,5.0,64,0.00,,,0.00,weatherlink.com 1.10,2013-10-16 07:34:00,
2013-10-16 00:49:00,50.0,39.0,30.01,NNE,24,3.0,7.0,67,0.00,,,0.00,weatherlink.com 1.10,2013-10-16 07:49:00,
2013-10-16 01:19:00,49.6,39.0,30.01,NNE,27,0.0,7.0,67,0.00,,,0.00,weatherlink.com 1.10,2013-10-16 08:19:00,
2013-10-16 01:34:00,49.7,39.0,30.02,NNE,24,5.0,10.0,66,0.00,,,0.00,weatherlink.com 1.10,2013-10-16 08:34:00,
2013-10-16 01:49:00,48.5,39.0,30.02,NNE,22,4.0,7.0,69,0.00,,,0.00,weatherlink.com 1.10,2013-10-16 08:49:00,
2013-10-16 02:04:00,48.1,39.0,30.02,NNE,26,0.0,5.0,70,0.00,,,0.00,weatherlink.com 1.10,2013-10-16 09:04:00,
2013-10-16 02:19:00,48.0,39.0,30.02,NNE,25,0.0,5.0,70,0.00,,,0.00,weatherlink.com 1.10,2013-10-16 09:19:00,
2013-10-16 02:34:00,48.0,39.0,30.03,NNE,27,0.0,7.0,70,0.00,,,0.00,weatherlink.com 1.10,2013-10-16 09:34:00,
2013-10-16 02:49:00,47.8,38.0,30.02,NE,34,0.0,10.0,70,0.00,,,0.00,weatherlink.com 1.10,2013-10-16 09:49:00,
2013-10-16 03:04:00,47.2,38.0,30.02,NNE,24,1.0,8.0,71,0.00,,,0.00,weatherlink.com 1.10,2013-10-16 10:04:00,
2013-10-16 03:19:00,46.9,38.0,30.02,NNE,24,3.0,7.0,71,0.00,,,0.00,weatherlink.com 1.10,2013-10-16 10:19:00,
2013-10-16 03:34:00,47.3,38.0,30.02,NNE,26,4.0,8.0,69,0.00,,,0.00,weatherlink.com 1.10,2013-10-16 10:34:00,
2013-10-16 03:49:00,46.4,38.0,30.02,NNE,28,2.0,9.0,72,0.00,,,0.00,weatherlink.com 1.10,2013-10-16 10:49:00,
2013-10-16 04:04:00,47.0,38.0,30.02,NNE,12,4.0,11.0,70,0.00,,,0.00,weatherlink.com 1.10,2013-10-16 11:04:00,
2013-10-16 04:19:00,46.1,37.0,30.02,North,9,7.0,10.0,71,0.00,,,0.00,weatherlink.com 1.10,2013-10-16 11:19:00,
2013-10-16 04:34:00,45.2,37.0,30.02,NNE,16,7.0,9.0,74,0.00,,,0.00,weatherlink.com 1.10,2013-10-16 11:34:00,
2013-10-16 04:49:00,45.7,37.0,30.02,North,10,8.0,9.0,72,0.00,,,0.00,weatherlink.com 1.10,2013-10-16 11:49:00,
2013-10-16 05:04:00,46.1,37.0,30.02,NNE,19,7.0,10.0,70,0.00,,,0.00,weatherlink.com 1.10,2013-10-16 12:04:00,
2013-10-16 05:19:00,45.5,37.0,30.02,NNE,24,8.0,10.0,72,0.00,,,0.00,weatherlink.com 1.10,2013-10-16 12:19:00,
2013-10-16 05:34:00,44.9,37.0,30.02,NNE,20,9.0,10.0,73,0.00,,,0.00,weatherlink.com 1.10,2013-10-16 12:34:00,
2013-10-16 05:49:00,44.7,37.0,30.03,North,5,7.0,9.0,73,0.00,,,0.00,weatherlink.com 1.10,2013-10-16 12:49:00,
2013-10-16 06:04:00,45.1,37.0,30.03,NNE,18,7.0,9.0,72,0.00,,,0.00,weatherlink.com 1.10,2013-10-16 13:04:00,
2013-10-16 06:19:00,44.8,36.0,30.04,NNE,17,8.0,10.0,72,0.00,,,0.00,weatherlink.com 1.10,2013-10-16 13:19:00,
2013-10-16 06:34:00,44.5,36.0,30.04,NNE,22,7.0,9.0,73,0.00,,,0.00,weatherlink.com 1.10,2013-10-16 13:34:00,
2013-10-16 06:50:00,44.0,36.0,30.05,NNE,21,6.0,9.0,74,0.00,,,0.00,weatherlink.com 1.10,2013-10-16 13:50:00,
2013-10-16 07:05:00,44.2,36.0,30.05,NNE,24,7.0,8.0,73,0.00,,,0.00,weatherlink.com 1.10,2013-10-16 14:05:00,
2013-10-16 07:20:00,44.3,36.0,30.05,NNE,18,7.0,8.0,73,0.00,,,0.00,weatherlink.com 1.10,2013-10-16 14:20:00,
2013-10-16 07:35:00,43.7,36.0,30.06,North,5,5.0,7.0,74,0.00,,,0.00,weatherlink.com 1.10,2013-10-16 14:35:00,
2013-10-16 07:50:00,43.4,36.0,30.06,NNE,22,4.0,6.0,75,0.00,,,0.00,weatherlink.com 1.10,2013-10-16 14:50:00,
2013-10-16 08:05:00,43.9,36.0,30.06,NNE,18,5.0,9.0,74,0.00,,,0.00,weatherlink.com 1.10,2013-10-16 15:05:00,
2013-10-16 08:20:00,44.8,36.0,30.06,NNE,24,7.0,8.0,72,0.00,,,0.00,weatherlink.com 1.10,2013-10-16 15:20:00,
2013-10-16 08:35:00,45.8,37.0,30.07,NNE,18,6.0,8.0,70,0.00,,,0.00,weatherlink.com 1.10,2013-10-16 15:35:00,
2013-10-16 08:50:00,47.1,37.0,30.07,NNE,19,6.0,8.0,67,0.00,,,0.00,weatherlink.com 1.10,2013-10-16 15:50:00,
2013-10-16 09:05:00,48.0,37.0,30.07,NNE,13,6.0,8.0,67,0.00,,,0.00,weatherlink.com 1.10,2013-10-16 16:05:00,
2013-10-16 09:20:00,49.1,38.0,30.07,NNE,22,7.0,8.0,66,0.00,,,0.00,weatherlink.com 1.10,2013-10-16 16:20:00,
2013-10-16 09:50:00,53.1,40.0,30.08,North,11,3.0,6.0,62,0.00,,,0.00,weatherlink.com 1.10,2013-10-16 16:50:00,
2013-10-16 10:05:00,55.3,41.0,30.08,NNE,13,3.0,6.0,59,0.00,,,0.00,weatherlink.com 1.10,2013-10-16 17:05:00,
2013-10-16 10:35:00,61.8,42.0,30.09,NNE,19,1.0,5.0,49,0.00,,,0.00,weatherlink.com 1.10,2013-10-16 17:35:00,
2013-10-16 10:50:00,64.1,44.0,30.09,NNE,19,0.0,3.0,49,0.00,,,0.00,weatherlink.com 1.10,2013-10-16 17:50:00,
2013-10-16 11:05:00,66.3,43.0,30.09,South,188,0.0,2.0,43,0.00,,,0.00,weatherlink.com 1.10,2013-10-16 18:05:00,
2013-10-16 11:35:00,69.3,39.0,30.09,SW,219,1.0,3.0,33,0.00,,,0.00,weatherlink.com 1.10,2013-10-16 18:35:00,
2013-10-16 11:51:00,71.2,35.0,30.09,SSW,194,3.0,5.0,27,0.00,,,0.00,weatherlink.com 1.10,2013-10-16 18:51:00,
2013-10-16 12:06:00,71.2,34.0,30.09,SSW,207,3.0,5.0,26,0.00,,,0.00,weatherlink.com 1.10,2013-10-16 19:06:00,
2013-10-16 12:21:00,72.4,35.0,30.09,SSW,210,3.0,4.0,25,0.00,,,0.00,weatherlink.com 1.10,2013-10-16 19:21:00,
2013-10-16 12:36:00,72.6,36.0,30.08,SSW,195,3.0,5.0,26,0.00,,,0.00,weatherlink.com 1.10,2013-10-16 19:36:00,
2013-10-16 12:51:00,72.5,36.0,30.08,SSW,213,2.0,6.0,26,0.00,,,0.00,weatherlink.com 1.10,2013-10-16 19:51:00,
2013-10-16 13:06:00,71.5,35.0,30.08,SSW,209,4.0,5.0,26,0.00,,,0.00,weatherlink.com 1.10,2013-10-16 20:06:00,
2013-10-16 13:21:00,70.4,34.0,30.08,SSW,208,3.0,6.0,26,0.00,,,0.00,weatherlink.com 1.10,2013-10-16 20:21:00,
2013-10-16 13:36:00,70.0,38.0,30.07,SW,222,4.0,6.0,31,0.00,,,0.00,weatherlink.com 1.10,2013-10-16 20:36:00,
2013-10-16 13:51:00,68.3,38.0,30.08,SSW,209,3.0,6.0,33,0.00,,,0.00,weatherlink.com 1.10,2013-10-16 20:51:00,
2013-10-16 14:06:00,68.3,40.0,30.08,South,184,4.0,5.0,36,0.00,,,0.00,weatherlink.com 1.10,2013-10-16 21:06:00,
2013-10-16 14:51:00,70.7,38.0,30.07,SSW,204,6.0,6.0,30,0.00,,,0.00,weatherlink.com 1.10,2013-10-16 21:51:00,
2013-10-16 15:06:00,71.3,36.0,30.07,SSW,200,4.0,6.0,27,0.00,,,0.00,weatherlink.com 1.10,2013-10-16 22:06:00,
2013-10-16 15:36:00,69.0,34.0,30.07,SSW,202,3.0,5.0,27,0.00,,,0.00,weatherlink.com 1.10,2013-10-16 22:36:00,
2013-10-16 15:51:00,69.4,35.0,30.07,SW,220,4.0,5.0,28,0.00,,,0.00,weatherlink.com 1.10,2013-10-16 22:51:00,
2013-10-16 16:21:00,68.5,37.0,30.07,SW,214,2.0,2.0,31,0.00,,,0.00,weatherlink.com 1.10,2013-10-16 23:21:00,
2013-10-16 16:36:00,69.2,39.0,30.06,SSW,207,2.0,3.0,33,0.00,,,0.00,weatherlink.com 1.10,2013-10-16 23:36:00,
2013-10-16 16:51:00,69.5,37.0,30.06,SSW,198,1.0,4.0,30,0.00,,,0.00,weatherlink.com 1.10,2013-10-16 23:51:00,
2013-10-16 17:06:00,70.7,38.0,30.06,SSW,209,2.0,3.0,30,0.00,,,0.00,weatherlink.com 1.10,2013-10-17 00:06:00,
2013-10-16 17:21:00,72.1,37.0,30.06,SSE,153,0.0,2.0,28,0.00,,,0.00,weatherlink.com 1.10,2013-10-17 00:21:00,
2013-10-16 17:36:00,70.1,38.0,30.06,SSW,200,2.0,3.0,31,0.00,,,0.00,weatherlink.com 1.10,2013-10-17 00:36:00,
2013-10-16 17:51:00,68.6,37.0,30.06,South,186,1.0,2.0,32,0.00,,,0.00,weatherlink.com 1.10,2013-10-17 00:51:00,
2013-10-16 18:21:00,68.0,37.0,30.06,NE,50,0.0,1.0,32,0.00,,,0.00,weatherlink.com 1.10,2013-10-17 01:21:00,
2013-10-16 18:36:00,65.0,35.0,30.06,NE,36,0.0,1.0,33,0.00,,,0.00,weatherlink.com 1.10,2013-10-17 01:36:00,
2013-10-16 18:51:00,63.9,33.0,30.06,NNE,32,0.0,1.0,32,0.00,,,0.00,weatherlink.com 1.10,2013-10-17 01:51:00,
2013-10-16 19:06:00,63.7,32.0,30.06,NNE,32,0.0,1.0,31,0.00,,,0.00,weatherlink.com 1.10,2013-10-17 02:06:00,
2013-10-16 19:21:00,63.8,33.0,30.06,NE,34,0.0,1.0,32,0.00,,,0.00,weatherlink.com 1.10,2013-10-17 02:21:00,
2013-10-16 19:51:00,62.0,34.0,30.06,NNE,32,0.0,4.0,35,0.00,,,0.00,weatherlink.com 1.10,2013-10-17 02:51:00,
2013-10-16 20:06:00,60.7,35.0,30.06,NNE,22,4.0,4.0,38,0.00,,,0.00,weatherlink.com 1.10,2013-10-17 03:06:00,
2013-10-16 20:21:00,59.2,37.0,30.06,NNE,30,0.0,4.0,44,0.00,,,0.00,weatherlink.com 1.10,2013-10-17 03:21:00,
2013-10-16 20:36:00,58.4,38.0,30.06,NNE,31,0.0,6.0,47,0.00,,,0.00,weatherlink.com 1.10,2013-10-17 03:36:00,
2013-10-16 20:51:00,57.3,38.0,30.06,NNE,28,1.0,5.0,48,0.00,,,0.00,weatherlink.com 1.10,2013-10-17 03:51:00,
2013-10-16 21:21:00,56.1,37.0,30.06,NNE,22,5.0,6.0,50,0.00,,,0.00,weatherlink.com 1.10,2013-10-17 04:21:00,
2013-10-16 21:37:00,55.6,38.0,30.07,NNE,24,1.0,8.0,53,0.00,,,0.00,weatherlink.com 1.10,2013-10-17 04:37:00,
2013-10-16 21:51:00,54.8,39.0,30.07,NNE,22,2.0,7.0,55,0.00,,,0.00,weatherlink.com 1.10,2013-10-17 04:51:00,
2013-10-16 22:06:00,54.2,38.0,30.07,NNE,24,3.0,7.0,55,0.00,,,0.00,weatherlink.com 1.10,2013-10-17 05:06:00,
2013-10-16 22:21:00,53.7,39.0,30.07,NNE,24,4.0,7.0,57,0.00,,,0.00,weatherlink.com 1.10,2013-10-17 05:21:00,
2013-10-16 22:36:00,53.2,39.0,30.07,NNE,26,3.0,7.0,58,0.00,,,0.00,weatherlink.com 1.10,2013-10-17 05:36:00,
2013-10-16 22:51:00,52.3,39.0,30.07,NNE,26,0.0,6.0,60,0.00,,,0.00,weatherlink.com 1.10,2013-10-17 05:51:00,
2013-10-16 23:06:00,51.9,39.0,30.06,NNE,26,1.0,6.0,61,0.00,,,0.00,weatherlink.com 1.10,2013-10-17 06:06:00,
2013-10-16 23:21:00,51.6,38.0,30.07,NNE,28,0.0,8.0,61,0.00,,,0.00,weatherlink.com 1.10,2013-10-17 06:21:00,
2013-10-16 23:37:00,52.6,38.0,30.07,NNE,30,1.0,6.0,58,0.00,,,0.00,weatherlink.com 1.10,2013-10-17 06:37:00,
2013-10-16 23:51:00,52.3,38.0,30.07,NE,35,1.0,4.0,59,0.00,,,0.00,weatherlink.com 1.10,2013-10-17 06:51:00,